Weather History for Broome, WE

Change the Weather History Date:

Sunday, December 9, 2012

  Actual Average Record
Temperature  
Mean Temperature 95 °F -  
Max Temperature 109 °F 93 °F - ()
Min Temperature 81 °F 80 °F - ()
Cooling Degree Days 30    
Growing Degree Days 45 (Base 50)    
Moisture  
Dew Point 71 °F    
Average Humidity 53    
Maximum Humidity 84    
Minimum Humidity 15    
Precipitation  
Precipitation 0.00 in 0.12 in - ()
Sea Level Pressure  
Sea Level Pressure 29.74 in    
Wind  
Wind Speed 8 mph ()    
Max Wind Speed 18 mph    
Max Gust Speed -    
Visibility 8.1 miles    
Events      
T = Trace of Precipitation, MM = Missing Value Source: Averaged Metar Reports

Daily Weather History Graph

Daily Weather History Graph

Search for Another Location

Airport:

Trip Planner

Search our weather history database for the weather conditions in past years. The results will help you decide how hot, cold, wet, or windy it might be!

Date:

Astronomy

Dec. 09, 2012 Rise Set
Actual Time 5:08 AM WST 6:18 PM WST
Civil Twilight 4:44 AM WST 6:42 PM WST
Nautical Twilight 4:15 AM WST 7:11 PM WST
Astronomical Twilight 3:46 AM WST 7:40 PM WST
Moon 1:11 AM WST (12/9) 2:02 PM WST (12/9)
Length of Visible Light 13h 58m
Length of Day
13h 10m
Waning Crescent, 24% of the Moon is Illuminated
Dec 9
Waning Crescent
Dec 13
New
Dec 20
First Quarter
Dec 28
Full
Jan 5
Last Quarter

Hourly Weather History & Observations

Time (WST) Temp. Heat Index Dew Point Humidity Pressure Visibility Wind Dir Wind Speed Gust Speed Precip Events Conditions
12:00 AM 91 °F - 67 °F 35% 29.75 in - South 5.8 mph - -  
12:00 AM 91.4 °F 94.0 °F 66.2 °F 43% 29.74 in 6.2 mi South 5.8 mph - N/A   Unknown
12:30 AM 91.4 °F 95.4 °F 68.0 °F 46% 29.74 in 6.2 mi South 6.9 mph - N/A   Unknown
1:00 AM 91.4 °F 94.0 °F 66.2 °F 43% 29.74 in 6.2 mi South 8.1 mph - N/A   Unknown
1:30 AM 89.6 °F 93.4 °F 68.0 °F 49% 29.74 in 6.2 mi South 6.9 mph - N/A   Unknown
2:00 AM 90 °F - 69 °F 40% 29.74 in - SSE 6.9 mph - -  
2:00 AM 89.6 °F 93.4 °F 68.0 °F 49% 29.74 in 6.2 mi SSE 6.9 mph - N/A   Unknown
2:30 AM 89.6 °F 93.4 °F 68.0 °F 49% 29.74 in 6.2 mi SSE 8.1 mph - N/A   Unknown
3:00 AM 89 °F - 67 °F 38% 29.76 in - SSE 5.8 mph - -  
3:00 AM 89.6 °F 92.2 °F 66.2 °F 46% 29.74 in 6.2 mi SSE 5.8 mph - N/A   Unknown
3:30 AM 84.2 °F 89.6 °F 71.6 °F 66% 29.77 in 6.2 mi Calm Calm - N/A   Unknown
4:00 AM 82.4 °F 86.3 °F 69.8 °F 66% 29.77 in 6.2 mi Calm Calm - N/A   Unknown
4:30 AM 84.2 °F 88.4 °F 69.8 °F 62% 29.77 in 6.2 mi East 3.5 mph - N/A   Unknown
5:00 AM 83 °F - 69 °F 55% 29.78 in - East 2.3 mph - -  
5:00 AM 82.4 °F 86.3 °F 69.8 °F 66% 29.77 in 6.2 mi East 2.3 mph - N/A   Unknown
5:30 AM 86.0 °F 88.2 °F 66.2 °F 51% 29.80 in 6.2 mi SE 3.5 mph - N/A   Unknown
6:00 AM 87 °F - 67 °F 41% 29.81 in 19 mi ESE 3.5 mph - -   Partly Cloudy
6:00 AM 87.8 °F 90.4 °F 66.2 °F 49% 29.80 in - ESE 3.5 mph - N/A   Clear
6:30 AM 89.6 °F 93.4 °F 68.0 °F 49% 29.80 in - ESE 5.8 mph - N/A   Clear
7:00 AM 91.4 °F 94.0 °F 66.2 °F 43% 29.80 in - ESE 9.2 mph - N/A   Clear
7:30 AM 93.2 °F 94.9 °F 64.4 °F 38% 29.80 in - SE 10.4 mph - N/A   Clear
8:00 AM 93 °F - 64 °F 29% 29.82 in - SE 11.5 mph - -  
8:00 AM 93.2 °F 94.9 °F 64.4 °F 38% 29.80 in - SE 11.5 mph - N/A   Clear
8:30 AM 95.0 °F 98.5 °F 66.2 °F 39% 29.80 in - SE 11.5 mph - N/A   Clear
9:00 AM 97 °F - 63 °F 23% 29.82 in 22 mi SE 12.7 mph - -   Scattered Clouds
9:00 AM 96.8 °F 98.0 °F 62.6 °F 32% 29.80 in - SE 12.7 mph - N/A   Clear
9:30 AM 98.6 °F 101.0 °F 64.4 °F 32% 29.80 in - SSE 13.8 mph - N/A   Clear
10:00 AM 98.6 °F 98.5 °F 59.0 °F 27% 29.80 in - SE 11.5 mph - N/A   Clear
10:30 AM 102.2 °F 103.6 °F 60.8 °F 26% 29.77 in - SSE 10.4 mph - N/A   Clear
11:00 AM 105 °F - 60 °F 15% 29.76 in - SSE 10.4 mph - -  
11:00 AM 104.0 °F 105.3 °F 60.8 °F 24% 29.74 in - SSE 10.4 mph - N/A   Clear
11:30 AM 105.8 °F 104.3 °F 53.6 °F 18% 29.74 in - SE 10.4 mph - N/A   Clear
12:00 PM 105.8 °F 104.3 °F 53.6 °F 18% 29.71 in - SE 10.4 mph - N/A   Clear
12:30 PM 107.6 °F 106.1 °F 53.6 °F 17% 29.71 in - SSE 11.5 mph - N/A   Clear
1:00 PM 107.6 °F - 50.0 °F 15% 29.68 in - SSE 10.4 mph - N/A   Clear
1:32 PM 98.6 °F 105.5 °F 69.8 °F 39% 29.68 in - NNW 13.8 mph - N/A   Clear
2:00 PM 98 °F - 71 °F 33% 29.69 in - NW 16.1 mph - -  
2:00 PM 98.6 °F 107.7 °F 71.6 °F 42% 29.68 in - NW 16.1 mph - N/A   Clear
2:30 PM 96.8 °F 105.1 °F 71.6 °F 44% 29.68 in - NW 18.4 mph - N/A   Clear
3:00 PM 96 °F - 74 °F 40% 29.68 in 19 mi NNW 17.3 mph - -   Haze
3:00 PM 96.8 °F 107.3 °F 73.4 °F 47% 29.65 in - NNW 17.3 mph - N/A   Clear
3:30 PM 95.0 °F 107.4 °F 75.2 °F 53% 29.65 in - NNW 16.1 mph - N/A   Clear
4:00 PM 93.2 °F 113.6 °F 80.6 °F 67% 29.65 in - NW 18.4 mph - N/A   Clear
4:30 PM 91.4 °F 114.3 °F 82.4 °F 75% 29.65 in - NW 18.4 mph - N/A   Clear
5:00 PM 90 °F - 82 °F 73% 29.67 in - NW 17.3 mph - -  
5:00 PM 89.6 °F 111.1 °F 82.4 °F 79% 29.65 in - NW 17.3 mph - N/A   Clear
5:30 PM 89.6 °F 111.1 °F 82.4 °F 79% 29.68 in 6.2 mi NW 15.0 mph - N/A   Partly Cloudy
6:00 PM 88 °F - 82 °F 79% 29.68 in 19 mi NW 15.0 mph - -   Haze
6:00 PM 87.8 °F 108.2 °F 82.4 °F 84% 29.68 in 6.2 mi NW 15.0 mph - N/A   Partly Cloudy
6:30 PM 87.8 °F 108.2 °F 82.4 °F 84% 29.68 in 6.2 mi NW 12.7 mph - N/A   Partly Cloudy
7:00 PM 87.8 °F 108.2 °F 82.4 °F 84% 29.68 in 6.2 mi NNW 10.4 mph - N/A   Partly Cloudy
7:30 PM 87.8 °F 108.2 °F 82.4 °F 84% 29.71 in 6.2 mi NNE 10.4 mph - N/A   Partly Cloudy
8:00 PM 88 °F - 82 °F 77% 29.71 in - North 9.2 mph - -  
8:00 PM 87.8 °F 108.2 °F 82.4 °F 84% 29.71 in 6.2 mi North 9.2 mph - N/A   Partly Cloudy
8:30 PM 87.8 °F 104.9 °F 80.6 °F 79% 29.71 in - NNW 9.2 mph - N/A   Clear
9:00 PM 87 °F - 83 °F 83% 29.73 in 19 mi NNW 8.1 mph - -   Haze
9:00 PM 87.8 °F 108.2 °F 82.4 °F 84% 29.71 in - NNW 8.1 mph - N/A   Clear
9:30 PM 87.8 °F 108.2 °F 82.4 °F 84% 29.74 in 6.2 mi NNW 4.6 mph - N/A   Unknown
10:00 PM 87.8 °F 108.2 °F 82.4 °F 84% 29.71 in 6.2 mi NNW 10.4 mph - N/A   Unknown
10:30 PM 87.8 °F 108.2 °F 82.4 °F 84% 29.74 in 6.2 mi North 5.8 mph - N/A   Unknown
11:00 PM 88 °F - 80 °F 72% 29.75 in - NNW 4.6 mph - -  
11:00 PM 87.8 °F 104.9 °F 80.6 °F 79% 29.74 in 6.2 mi NNW 4.6 mph - N/A   Unknown
11:30 PM 86.0 °F 101.9 °F 80.6 °F 84% 29.77 in 6.2 mi ENE 10.4 mph - N/A   Unknown